Time,TemperatureF,DewpointF,PressureIn,WindDirection,WindDirectionDegrees,WindSpeedMPH,WindSpeedGustMPH,Humidity,HourlyPrecipIn,Conditions,Clouds,dailyrainin,SoftwareType,DateUTC
2013-02-11 00:02:00,29.0,24.0,29.79,WNW,293,15.0,23.0,80,0.00,,,0.01,,2013-02-11 06:02:00,
2013-02-11 00:11:00,29.0,24.0,29.80,WNW,302,17.0,27.0,80,0.00,,,0.01,,2013-02-11 06:11:00,
2013-02-11 00:21:00,29.0,24.0,29.80,WNW,302,17.0,27.0,80,0.00,,,0.01,,2013-02-11 06:21:00,
2013-02-11 00:32:00,29.0,24.0,29.81,WNW,303,15.0,23.0,80,0.00,,,0.01,,2013-02-11 06:32:00,
2013-02-11 00:42:00,29.0,23.0,29.82,WNW,291,17.0,25.0,79,0.00,,,0.01,,2013-02-11 06:42:00,
2013-02-11 00:51:00,29.0,23.0,29.82,WNW,291,17.0,25.0,79,0.00,,,0.01,,2013-02-11 06:51:00,
2013-02-11 01:01:00,29.0,24.0,29.84,WNW,300,17.0,23.0,80,0.00,,,0.01,,2013-02-11 07:01:00,
2013-02-11 01:11:00,29.0,24.0,29.84,WNW,301,17.0,24.0,80,0.00,,,0.01,,2013-02-11 07:11:00,
2013-02-11 01:21:00,29.0,24.0,29.84,WNW,301,17.0,24.0,80,0.00,,,0.01,,2013-02-11 07:21:00,
2013-02-11 01:32:00,29.0,24.0,29.85,NW,310,19.0,27.0,80,0.00,,,0.01,,2013-02-11 07:32:00,
2013-02-11 01:41:00,29.0,24.0,29.86,WNW,301,18.0,32.0,82,0.00,,,0.01,,2013-02-11 07:41:00,
2013-02-11 01:52:00,29.0,24.0,29.86,WNW,301,18.0,32.0,82,0.00,,,0.01,,2013-02-11 07:52:00,
2013-02-11 02:01:00,29.0,25.0,29.87,NW,305,14.0,22.0,85,0.00,,,0.01,,2013-02-11 08:01:00,
2013-02-11 02:11:00,29.0,25.0,29.88,WNW,295,12.0,16.0,86,0.00,,,0.01,,2013-02-11 08:11:00,
2013-02-11 02:21:00,29.0,25.0,29.88,WNW,295,12.0,16.0,86,0.00,,,0.01,,2013-02-11 08:21:00,
2013-02-11 02:31:00,30.0,26.0,29.89,WNW,295,15.0,17.0,85,0.00,,,0.00,,2013-02-11 08:31:00,
2013-02-11 02:42:00,30.0,26.0,29.89,WNW,293,17.0,23.0,84,0.00,,,0.00,,2013-02-11 08:42:00,
2013-02-11 02:52:00,30.0,26.0,29.89,WNW,293,17.0,23.0,84,0.00,,,0.00,,2013-02-11 08:52:00,
2013-02-11 03:01:00,29.0,25.0,29.91,WNW,301,18.0,22.0,83,0.00,,,0.00,,2013-02-11 09:01:00,
2013-02-11 03:12:00,29.0,24.0,29.91,WNW,303,16.0,22.0,82,0.00,,,0.00,,2013-02-11 09:12:00,
2013-02-11 03:21:00,29.0,24.0,29.91,WNW,303,16.0,22.0,82,0.00,,,0.00,,2013-02-11 09:21:00,
2013-02-11 03:32:00,29.0,24.0,29.93,NW,313,16.0,28.0,82,0.00,,,0.00,,2013-02-11 09:32:00,
2013-02-11 03:41:00,29.0,24.0,29.93,NW,313,16.0,28.0,82,0.00,,,0.00,,2013-02-11 09:41:00,
2013-02-11 03:51:00,29.0,24.0,29.92,NW,318,19.0,32.0,81,0.00,,,0.00,,2013-02-11 09:51:00,
2013-02-11 04:01:00,29.0,23.0,29.93,NW,318,15.0,18.0,79,0.00,,,0.00,,2013-02-11 10:01:00,
2013-02-11 04:11:00,29.0,24.0,29.93,NW,317,12.0,17.0,81,0.00,,,0.00,,2013-02-11 10:11:00,
2013-02-11 04:21:00,29.0,24.0,29.93,NW,317,12.0,17.0,81,0.00,,,0.00,,2013-02-11 10:21:00,
2013-02-11 04:31:00,28.0,23.0,29.93,NW,321,14.0,23.0,81,0.00,,,0.00,,2013-02-11 10:31:00,
2013-02-11 04:41:00,28.0,23.0,29.94,NW,309,16.0,32.0,80,0.00,,,0.00,,2013-02-11 10:41:00,
2013-02-11 04:51:00,28.0,23.0,29.94,NW,309,16.0,32.0,80,0.00,,,0.00,,2013-02-11 10:51:00,
2013-02-11 05:01:00,28.0,23.0,29.96,NW,311,17.0,23.0,80,0.00,,,0.00,,2013-02-11 11:01:00,
2013-02-11 05:11:00,28.0,23.0,29.96,NW,311,17.0,23.0,80,0.00,,,0.00,,2013-02-11 11:11:00,
2013-02-11 05:22:00,28.0,23.0,29.97,NW,308,16.0,21.0,80,0.00,,,0.00,,2013-02-11 11:22:00,
2013-02-11 05:32:00,28.0,22.0,29.98,NW,307,16.0,23.0,79,0.00,,,0.00,,2013-02-11 11:32:00,
2013-02-11 05:42:00,28.0,23.0,29.98,NW,310,15.0,21.0,81,0.00,,,0.00,,2013-02-11 11:42:00,
2013-02-11 05:52:00,28.0,23.0,29.98,NW,310,15.0,21.0,81,0.00,,,0.00,,2013-02-11 11:52:00,
2013-02-11 06:03:00,28.0,23.0,30.00,NW,306,14.0,21.0,81,0.00,,,0.00,,2013-02-11 12:03:00,
2013-02-11 06:12:00,28.0,23.0,30.01,WNW,297,19.0,23.0,82,0.00,,,0.00,,2013-02-11 12:12:00,
2013-02-11 06:22:00,28.0,23.0,30.01,WNW,297,19.0,23.0,82,0.00,,,0.00,,2013-02-11 12:22:00,
2013-02-11 06:32:00,28.0,24.0,30.01,NW,309,16.0,20.0,83,0.00,,,0.00,,2013-02-11 12:32:00,
2013-02-11 06:42:00,28.0,24.0,30.02,NW,309,11.0,16.0,84,0.00,,,0.00,,2013-02-11 12:42:00,
2013-02-11 06:52:00,28.0,24.0,30.02,NW,309,11.0,16.0,84,0.00,,,0.00,,2013-02-11 12:52:00,
2013-02-11 07:02:00,28.0,24.0,30.02,NW,326,10.0,12.0,84,0.00,,,0.00,,2013-02-11 13:02:00,
2013-02-11 07:11:00,28.0,24.0,30.03,NW,317,11.0,15.0,85,0.00,,,0.00,,2013-02-11 13:11:00,
2013-02-11 07:22:00,28.0,24.0,30.03,NW,317,11.0,15.0,85,0.00,,,0.00,,2013-02-11 13:22:00,
2013-02-11 07:32:00,28.0,24.0,30.04,NW,304,14.0,25.0,83,0.00,,,0.00,,2013-02-11 13:32:00,
2013-02-11 07:42:00,28.0,24.0,30.04,NW,304,14.0,25.0,83,0.00,,,0.00,,2013-02-11 13:42:00,
2013-02-11 07:52:00,28.0,23.0,30.04,NW,311,13.0,18.0,82,0.00,,,0.00,,2013-02-11 13:52:00,
2013-02-11 08:02:00,28.0,23.0,30.04,NW,309,14.0,18.0,82,0.00,,,0.00,,2013-02-11 14:02:00,
2013-02-11 08:11:00,28.0,23.0,30.04,NW,309,14.0,18.0,82,0.00,,,0.00,,2013-02-11 14:11:00,
2013-02-11 08:22:00,28.0,23.0,30.05,NW,311,13.0,18.0,80,0.00,,,0.00,,2013-02-11 14:22:00,
2013-02-11 08:32:00,28.0,22.0,30.06,NW,322,13.0,19.0,79,0.00,,,0.00,,2013-02-11 14:32:00,
2013-02-11 08:42:00,28.0,23.0,30.06,NW,322,13.0,20.0,80,0.00,,,0.00,,2013-02-11 14:42:00,
2013-02-11 08:52:00,28.0,23.0,30.06,NW,322,13.0,20.0,80,0.00,,,0.00,,2013-02-11 14:52:00,
2013-02-11 09:02:00,29.0,23.0,30.07,NW,320,11.0,12.0,79,0.00,,,0.00,,2013-02-11 15:02:00,
2013-02-11 09:11:00,29.0,23.0,30.07,NNW,327,16.0,21.0,79,0.00,,,0.00,,2013-02-11 15:11:00,
2013-02-11 09:22:00,29.0,23.0,30.07,NNW,327,16.0,21.0,79,0.00,,,0.00,,2013-02-11 15:22:00,
2013-02-11 09:32:00,29.0,22.0,30.09,NW,319,18.0,23.0,76,0.00,,,0.00,,2013-02-11 15:32:00,
2013-02-11 09:42:00,29.0,23.0,30.09,NW,319,13.0,18.0,77,0.00,,,0.00,,2013-02-11 15:42:00,
2013-02-11 09:52:00,29.0,23.0,30.09,NW,319,13.0,18.0,77,0.00,,,0.00,,2013-02-11 15:52:00,
2013-02-11 10:02:00,29.0,23.0,30.11,NNW,327,15.0,20.0,77,0.00,,,0.00,,2013-02-11 16:02:00,
2013-02-11 10:11:00,29.0,23.0,30.11,NW,318,13.0,18.0,77,0.00,,,0.00,,2013-02-11 16:11:00,
2013-02-11 10:22:00,29.0,23.0,30.11,NW,318,13.0,18.0,77,0.00,,,0.00,,2013-02-11 16:22:00,
2013-02-11 10:32:00,29.0,23.0,30.11,NNW,329,15.0,19.0,77,0.00,,,0.00,,2013-02-11 16:32:00,
2013-02-11 10:42:00,30.0,24.0,30.12,NW,323,10.0,14.0,78,0.00,,,0.00,,2013-02-11 16:42:00,
2013-02-11 10:52:00,30.0,24.0,30.12,NW,323,10.0,14.0,78,0.00,,,0.00,,2013-02-11 16:52:00,
2013-02-11 11:01:00,29.0,23.0,30.13,WNW,290,15.0,22.0,77,0.00,,,0.00,,2013-02-11 17:01:00,
2013-02-11 11:11:00,29.0,23.0,30.13,WNW,290,15.0,22.0,77,0.00,,,0.00,,2013-02-11 17:11:00,
2013-02-11 11:21:00,30.0,24.0,30.13,NW,304,13.0,17.0,77,0.00,,,0.00,,2013-02-11 17:21:00,
2013-02-11 11:32:00,30.0,23.0,30.13,NW,313,12.0,18.0,75,0.00,,,0.00,,2013-02-11 17:32:00,
2013-02-11 11:42:00,30.0,23.0,30.13,NW,313,12.0,18.0,75,0.00,,,0.00,,2013-02-11 17:42:00,
2013-02-11 11:52:00,31.0,23.0,30.13,NW,319,13.0,19.0,73,0.00,,,0.00,,2013-02-11 17:52:00,
2013-02-11 12:02:00,32.0,24.0,30.13,NW,318,12.0,17.0,72,0.00,,,0.00,,2013-02-11 18:02:00,
2013-02-11 12:11:00,32.0,24.0,30.13,NW,318,12.0,17.0,72,0.00,,,0.00,,2013-02-11 18:11:00,
2013-02-11 12:21:00,32.0,24.0,30.13,WNW,301,14.0,19.0,73,0.00,,,0.00,,2013-02-11 18:21:00,
2013-02-11 12:32:00,32.0,24.0,30.12,NW,315,10.0,13.0,72,0.00,,,0.00,,2013-02-11 18:32:00,
2013-02-11 12:42:00,32.0,24.0,30.12,NW,319,11.0,20.0,73,0.00,,,0.00,,2013-02-11 18:42:00,
2013-02-11 12:52:00,32.0,24.0,30.12,NW,319,11.0,20.0,73,0.00,,,0.00,,2013-02-11 18:52:00,
2013-02-11 13:02:00,33.0,25.0,30.12,NW,318,9.0,13.0,71,0.00,,,0.00,,2013-02-11 19:02:00,
2013-02-11 13:11:00,31.0,23.0,30.12,NW,311,15.0,18.0,73,0.00,,,0.00,,2013-02-11 19:11:00,
2013-02-11 13:21:00,31.0,23.0,30.12,NW,311,15.0,18.0,73,0.00,,,0.00,,2013-02-11 19:21:00,
2013-02-11 13:32:00,33.0,25.0,30.11,NW,309,10.0,13.0,72,0.00,,,0.00,,2013-02-11 19:32:00,
2013-02-11 13:41:00,33.0,25.0,30.11,NW,325,11.0,18.0,73,0.00,,,0.00,,2013-02-11 19:41:00,
2013-02-11 13:51:00,33.0,25.0,30.11,NW,325,11.0,18.0,73,0.00,,,0.00,,2013-02-11 19:51:00,
2013-02-11 14:01:00,33.0,25.0,30.12,NW,318,8.0,13.0,73,0.00,,,0.00,,2013-02-11 20:01:00,
2013-02-11 14:11:00,33.0,25.0,30.12,NW,310,8.0,10.0,73,0.00,,,0.00,,2013-02-11 20:11:00,
2013-02-11 14:21:00,33.0,25.0,30.12,NW,310,8.0,10.0,73,0.00,,,0.00,,2013-02-11 20:21:00,
2013-02-11 14:32:00,33.0,25.0,30.12,WNW,298,11.0,16.0,73,0.00,,,0.00,,2013-02-11 20:32:00,
2013-02-11 14:42:00,33.0,25.0,30.12,NW,307,8.0,12.0,73,0.00,,,0.00,,2013-02-11 20:42:00,
2013-02-11 14:52:00,33.0,25.0,30.12,NW,307,8.0,12.0,73,0.00,,,0.00,,2013-02-11 20:52:00,
2013-02-11 15:02:00,33.0,25.0,30.12,NW,317,9.0,11.0,73,0.00,,,0.00,,2013-02-11 21:02:00,
2013-02-11 15:11:00,33.0,25.0,30.12,NW,313,10.0,13.0,73,0.00,,,0.00,,2013-02-11 21:11:00,
2013-02-11 15:21:00,33.0,25.0,30.12,NW,313,10.0,13.0,73,0.00,,,0.00,,2013-02-11 21:21:00,
2013-02-11 15:32:00,33.0,25.0,30.12,NW,323,9.0,12.0,73,0.00,,,0.00,,2013-02-11 21:32:00,
2013-02-11 15:42:00,33.0,25.0,30.11,WNW,302,8.0,12.0,73,0.00,,,0.00,,2013-02-11 21:42:00,
2013-02-11 15:52:00,33.0,25.0,30.11,WNW,302,8.0,12.0,73,0.00,,,0.00,,2013-02-11 21:52:00,
2013-02-11 16:02:00,33.0,25.0,30.12,NW,318,8.0,9.0,73,0.00,,,0.00,,2013-02-11 22:02:00,
2013-02-11 16:11:00,33.0,25.0,30.11,NW,324,10.0,11.0,73,0.00,,,0.00,,2013-02-11 22:11:00,
2013-02-11 16:21:00,33.0,25.0,30.11,NW,324,10.0,11.0,73,0.00,,,0.00,,2013-02-11 22:21:00,
2013-02-11 16:32:00,33.0,26.0,30.12,WNW,296,11.0,15.0,74,0.00,,,0.00,,2013-02-11 22:32:00,
2013-02-11 16:42:00,33.0,26.0,30.12,WNW,296,11.0,15.0,74,0.00,,,0.00,,2013-02-11 22:42:00,
2013-02-11 16:52:00,32.0,25.0,30.12,WNW,300,10.0,13.0,74,0.00,,,0.00,,2013-02-11 22:52:00,
2013-02-11 17:02:00,32.0,25.0,30.12,NNW,338,10.0,14.0,74,0.00,,,0.00,,2013-02-11 23:02:00,
2013-02-11 17:11:00,32.0,25.0,30.12,NNW,338,10.0,14.0,74,0.00,,,0.00,,2013-02-11 23:11:00,
2013-02-11 17:21:00,33.0,26.0,30.12,NW,324,8.0,14.0,74,0.00,,,0.00,,2013-02-11 23:21:00,
2013-02-11 17:32:00,32.0,25.0,30.12,NNW,345,9.0,11.0,74,0.00,,,0.00,,2013-02-11 23:32:00,
2013-02-11 17:41:00,32.0,25.0,30.12,NNW,345,9.0,11.0,74,0.00,,,0.00,,2013-02-11 23:41:00,
2013-02-11 17:52:00,32.0,25.0,30.12,NNW,348,9.0,10.0,75,0.00,,,0.00,,2013-02-11 23:52:00,
2013-02-11 18:01:00,31.0,25.0,30.12,North,354,6.0,8.0,77,0.00,,,0.00,,2013-02-12 00:01:00,
2013-02-11 18:11:00,31.0,25.0,30.12,North,354,6.0,8.0,77,0.00,,,0.00,,2013-02-12 00:11:00,
2013-02-11 18:22:00,30.0,24.0,30.11,NNW,348,8.0,11.0,78,0.00,,,0.00,,2013-02-12 00:22:00,
2013-02-11 18:32:00,30.0,25.0,30.12,North,356,5.0,7.0,80,0.00,,,0.00,,2013-02-12 00:32:00,
2013-02-11 18:42:00,30.0,25.0,30.12,North,356,5.0,7.0,80,0.00,,,0.00,,2013-02-12 00:42:00,
2013-02-11 18:52:00,29.0,24.0,30.13,North,352,6.0,8.0,81,0.00,,,0.00,,2013-02-12 00:52:00,
2013-02-11 19:02:00,28.0,24.0,30.13,North,352,6.0,9.0,83,0.00,,,0.00,,2013-02-12 01:02:00,
2013-02-11 19:11:00,28.0,24.0,30.13,North,352,6.0,9.0,83,0.00,,,0.00,,2013-02-12 01:11:00,
2013-02-11 19:21:00,28.0,24.0,30.14,North,355,5.0,6.0,83,0.00,,,0.00,,2013-02-12 01:21:00,
2013-02-11 19:32:00,28.0,24.0,30.14,NNW,346,3.0,4.0,84,0.00,,,0.00,,2013-02-12 01:32:00,
2013-02-11 19:42:00,28.0,24.0,30.14,NNW,338,2.0,3.0,84,0.00,,,0.00,,2013-02-12 01:42:00,
2013-02-11 19:51:00,28.0,24.0,30.14,NNW,338,2.0,3.0,84,0.00,,,0.00,,2013-02-12 01:51:00,
2013-02-11 20:01:00,27.0,23.0,30.14,North,352,4.0,6.0,85,0.00,,,0.00,,2013-02-12 02:01:00,
2013-02-11 20:11:00,27.0,23.0,30.14,NNW,346,5.0,6.0,86,0.00,,,0.00,,2013-02-12 02:11:00,
2013-02-11 20:21:00,27.0,23.0,30.14,NNW,346,5.0,6.0,86,0.00,,,0.00,,2013-02-12 02:21:00,
2013-02-11 20:32:00,27.0,23.0,30.14,North,350,4.0,4.0,86,0.00,,,0.00,,2013-02-12 02:32:00,
2013-02-11 20:41:00,27.0,23.0,30.14,North,350,4.0,4.0,86,0.00,,,0.00,,2013-02-12 02:41:00,
2013-02-11 20:52:00,26.0,23.0,30.14,NNW,343,5.0,7.0,87,0.00,,,0.00,,2013-02-12 02:52:00,
2013-02-11 21:02:00,26.0,22.0,30.13,NNW,344,5.0,7.0,86,0.00,,,0.00,,2013-02-12 03:02:00,
2013-02-11 21:11:00,26.0,22.0,30.13,NNW,348,4.0,6.0,85,0.00,,,0.00,,2013-02-12 03:11:00,
2013-02-11 21:21:00,26.0,22.0,30.13,NNW,348,4.0,6.0,85,0.00,,,0.00,,2013-02-12 03:21:00,
2013-02-11 21:31:00,25.0,21.0,30.12,North,351,4.0,5.0,86,0.00,,,0.00,,2013-02-12 03:31:00,
2013-02-11 21:41:00,25.0,21.0,30.12,North,0,2.0,3.0,86,0.00,,,0.00,,2013-02-12 03:41:00,
2013-02-11 21:51:00,25.0,21.0,30.12,North,0,2.0,3.0,86,0.00,,,0.00,,2013-02-12 03:51:00,
2013-02-11 22:01:00,25.0,22.0,30.12,North,351,1.0,2.0,87,0.00,,,0.00,,2013-02-12 04:01:00,
2013-02-11 22:11:00,25.0,22.0,30.12,North,351,1.0,2.0,87,0.00,,,0.00,,2013-02-12 04:11:00,
2013-02-11 22:21:00,25.0,22.0,30.13,NNW,335,0.0,0.0,87,0.00,,,0.00,,2013-02-12 04:21:00,
2013-02-11 22:31:00,25.0,22.0,30.13,WNW,295,0.0,0.0,88,0.00,,,0.00,,2013-02-12 04:31:00,
2013-02-11 22:41:00,25.0,22.0,30.13,WNW,295,0.0,0.0,88,0.00,,,0.00,,2013-02-12 04:41:00,
2013-02-11 22:51:00,24.0,21.0,30.13,WNW,295,0.0,0.0,88,0.00,,,0.00,,2013-02-12 04:51:00,
2013-02-11 23:01:00,24.0,21.0,30.14,WSW,245,4.0,4.0,88,0.00,,,0.00,,2013-02-12 05:01:00,
2013-02-11 23:11:00,24.0,21.0,30.14,WSW,247,3.0,3.0,88,0.00,,,0.00,,2013-02-12 05:11:00,
2013-02-11 23:21:00,24.0,21.0,30.14,WSW,247,3.0,3.0,88,0.00,,,0.00,,2013-02-12 05:21:00,
2013-02-11 23:31:00,24.0,21.0,30.14,WSW,240,3.0,4.0,89,0.00,,,0.00,,2013-02-12 05:31:00,
2013-02-11 23:42:00,24.0,21.0,30.14,WSW,240,3.0,4.0,89,0.00,,,0.00,,2013-02-12 05:42:00,
2013-02-11 23:52:00,24.0,21.0,30.15,WSW,237,3.0,3.0,89,0.00,,,0.00,,2013-02-12 05:52:00,